User: anonymous   Login
Location: Space Photons Observatory
(33.2428°N, 111.5467°W)
Time: 07:32:53
(UTC-07:00)
Language:

RESURS DK-1 - Orbit

View from above orbital plane
View from above orbital plane
View from above satellite
View from above satellite

Ground track
Ground track

The orbit data is extracted from the following two-line orbital elements,

1 29228U 06021A   16340.19197434  .00000156  00000-0  19323-4 0  9998
2 29228  69.9358 231.6019 0007863 275.1267  84.8996 15.02054452578979
Epoch (UTC): 05 December 2016 04:36:26
Eccentricity: 0.0007863
inclination: 69.9358°
perigee height: 555 km
apogee height: 566 km
right ascension of ascending node: 231.6019°
argument of perigee: 275.1267°
revolutions per day: 15.02054452
mean anomaly at epoch: 84.8996°
orbit number at epoch: 57897

The dashed part of the orbit path shows where the satellite is in the earth's shadow,  

DLR